Regional Weather Roundup
Issued by NWS Newport/Morehead, NC

Current Version | Previous Version | Text Only | Print | Product List | Glossary On
Versions: 1 2 3 4 5 6 7 8 9 10 11 12 13 14 15 16 17 18 19 20 21 22 23 24 25 26 27 28 29 30 31 32 33 34 35 36 37 38 39 40 41 42 43 44 45 46 47 48 49 50
000
ASUS42 KMHX 011625
RWRMHX
WEATHER ROUNDUP FOR EASTERN NORTH CAROLINA
NATIONAL WEATHER SERVICE NEWPORT/MOREHEAD CITY NC
1200 PM EDT SUN MAY 01 2016

NOTE: "FAIR" INDICATES FEW OR NO CLOUDS BELOW 12,000 FEET
WITH NO SIGNIFICANT WEATHER AND/OR OBSTRUCTIONS TO VISIBILITY

NCZ015>017-031-032-045>047-102-103-011700-
NORTH COAST

CITY           SKY/WX    TMP DP  RH WIND       PRES   REMARKS
EDENTON        CLOUDY    70  66  87 CALM      30.11F
ELIZABETH CITY CLOUDY    67  61  81 S5        30.11F
KITTY HAWK     PTSUNNY   74  64  69 S9        30.09F
MANTEO         NOT AVBL

$$

NCZ045>047-081-094-103-104-011700-
CENTRAL COAST

CITY           SKY/WX    TMP DP  RH WIND       PRES   REMARKS
FRISCO         CLOUDY    71  64  78 S8        30.14S
SWANQUARTER    NOT AVBL

$$

NCZ095-097-098-100-101-011700-
SOUTHERN COAST

CITY           SKY/WX    TMP DP  RH WIND       PRES   REMARKS
BEAUFORT       CLOUDY    74  66  76 MISG      30.14S
CEDAR ISLAND   NOT AVBL
JACKSONVILLE   CLOUDY    76  63  64 S12G22    30.12S
PINEY ISLAND   NOT AVBL
WILMINGTON     CLOUDY    77  61  57 S15       30.12S


$$

NCZ011>013-027>030-043-044-078>080-089-090>093-098-011700-
COASTAL PLAIN

CITY           SKY/WX    TMP DP  RH WIND       PRES   REMARKS
AHOSKIE        CLOUDY    69  63  81 S8G16     30.09F
CLINTON        RAIN      71  67  87 S5        30.11F
ELIZABETHTOWN  RAIN      70  67  92 S5        30.11S
GOLDSBORO      TSTM      70  70 100 SE3       30.09F
GREENVILLE     CLOUDY    72  66  83 S8        30.11F
HAVELOCK       CLOUDY    77  66  68 S13G22    30.14R
KENANSVILLE    PTSUNNY   73  64  74 S3        30.12S
KINSTON        DRIZZLE   72  64  78 S8        30.12F
NEW BERN       PTSUNNY   76  64  66 S10G20    30.13S
RICHLANDS      CLOUDY    75  64  69 S14G20    30.11F
ROCKY MOUNT    CLOUDY    67  63  87 S6        30.11S
WASHINGTON     PTSUNNY   73  65  75 SW10G16   30.11F
WHITEVILLE     LGT RAIN  73  66  77 SE6       30.10F

$$

AMZ130-135-150-152-154-156-158-170-250-252-270-ANZ085-086-088-633-658-670-011700-
MARINE OBSERVATIONS

STATION/POSITION TIME  TEMP    WIND        PRES    WAVE   SWELL
                       AIR SEA DIR/SP/G            HT/PER HT/PER
                 (UTC) (F)     (DEG/KT/KT) (MB)    (FT/S) (FT/S)
CHESAPEAKE LIGHT 1600   56     110/ 17/ 18 1019.8
64 E VA BEACH    1550   56 53   90/  6/  8 1020.0    4/ 9   5/ 9
DUCK             1600   61 66  120/  4/  5 1019.0
2 E DUCK         1511      59                N/A     4/ 9   2/11
OREGON INLET     1600   67 60  180/  7/  8 1020.0
13E OREGON INLT  1600      59                N/A     5/10   5/10
HATTERAS CG      1600   72 66  170/  7/ 10 1020.3
DIAMOND BUOY     1550   73 74  190/ 12/ 14 1020.7    5/10   5/10
CAPE LOOKOUT     1600   71     170/  7/  8 1020.3
BEAUFORT LAB     1600   72 67  190/  8/ 11 1019.6
30 SE NEW RVR IN 1525      70                N/A     4/11   2/11
27 SE WRIGHTSVLE 1608   74 71  210/ 10/ 14 1019.6
5 SE WRIGHTSVLE  1608   71 69  170/  6/ 10 1020.5
225 S CAPE HAT   1550   72     130/ 12/ 14 1020.7    4/11   3/11
41 SE CHARLESTON 1550   75 72  170/ 12/ 14 1018.9    5/11   3/11

$$




USA.gov is the U.S. government's official web portal to all federal, state and local government web resources and services.